Time,TemperatureF,DewpointF,PressureIn,WindDirection,WindDirectionDegrees,WindSpeedMPH,WindSpeedGustMPH,Humidity,HourlyPrecipIn,Conditions,Clouds,dailyrainin,SoftwareType,DateUTC
2013-08-04 00:02:00,70.9,66.8,29.91,North,360,2.0,5.0,87,0.00,,,0.00,Wunderground v.1.15,2013-08-04 04:02:00,
2013-08-04 00:04:00,70.8,66.7,29.91,North,360,3.0,5.0,87,0.00,,,0.00,Wunderground v.1.15,2013-08-04 04:04:00,
2013-08-04 00:05:00,70.7,66.6,29.91,North,360,4.0,5.0,87,0.00,,,0.00,Wunderground v.1.15,2013-08-04 04:05:00,
2013-08-04 00:10:00,70.6,66.5,29.91,North,360,4.0,4.0,87,0.00,,,0.00,Wunderground v.1.15,2013-08-04 04:10:00,
2013-08-04 00:11:00,70.6,66.9,29.91,North,360,3.0,4.0,88,0.00,,,0.00,Wunderground v.1.15,2013-08-04 04:11:00,
2013-08-04 00:16:00,70.7,66.6,29.91,North,360,2.0,4.0,87,0.00,,,0.00,Wunderground v.1.15,2013-08-04 04:16:00,
2013-08-04 00:18:00,70.7,66.6,29.91,North,360,2.0,4.0,87,0.00,,,0.00,Wunderground v.1.15,2013-08-04 04:18:00,
2013-08-04 00:21:00,70.9,66.8,29.91,North,360,2.0,5.0,87,0.00,,,0.00,Wunderground v.1.15,2013-08-04 04:21:00,
2013-08-04 00:24:00,71.0,66.9,29.90,North,360,2.0,5.0,87,0.00,,,0.00,Wunderground v.1.15,2013-08-04 04:24:00,
2013-08-04 00:26:00,71.0,66.9,29.91,North,360,2.0,5.0,87,0.00,,,0.00,Wunderground v.1.15,2013-08-04 04:26:00,
2013-08-04 00:30:00,71.0,66.9,29.91,North,360,2.0,3.0,87,0.00,,,0.00,Wunderground v.1.15,2013-08-04 04:30:00,
2013-08-04 00:31:00,71.0,66.9,29.91,North,360,2.0,4.0,87,0.00,,,0.00,Wunderground v.1.15,2013-08-04 04:31:00,
2013-08-04 00:34:00,71.0,66.6,29.91,North,360,3.0,7.0,86,0.00,,,0.00,Wunderground v.1.15,2013-08-04 04:34:00,
2013-08-04 00:38:00,70.9,66.5,29.90,North,360,4.0,7.0,86,0.00,,,0.00,Wunderground v.1.15,2013-08-04 04:38:00,
2013-08-04 00:40:00,70.9,66.5,29.91,North,360,4.0,4.0,86,0.00,,,0.00,Wunderground v.1.15,2013-08-04 04:40:00,
2013-08-04 00:44:00,70.9,66.5,29.91,North,360,4.0,5.0,86,0.00,,,0.00,Wunderground v.1.15,2013-08-04 04:44:00,
2013-08-04 00:46:00,70.9,66.8,29.91,North,360,4.0,5.0,87,0.00,,,0.00,Wunderground v.1.15,2013-08-04 04:46:00,
2013-08-04 00:49:00,71.0,66.6,29.91,North,360,4.0,4.0,86,0.00,,,0.00,Wunderground v.1.15,2013-08-04 04:49:00,
2013-08-04 00:54:00,71.0,66.6,29.91,North,360,4.0,4.0,86,0.00,,,0.00,Wunderground v.1.15,2013-08-04 04:54:00,
2013-08-04 00:56:00,70.9,66.5,29.91,North,360,3.0,4.0,86,0.00,,,0.00,Wunderground v.1.15,2013-08-04 04:56:00,
2013-08-04 00:58:00,70.9,66.5,29.91,North,360,3.0,4.0,86,0.00,,,0.00,Wunderground v.1.15,2013-08-04 04:58:00,
2013-08-04 01:01:00,70.8,66.7,29.91,North,360,3.0,4.0,87,0.00,,,0.00,Wunderground v.1.15,2013-08-04 05:01:00,
2013-08-04 01:04:00,70.7,66.6,29.91,North,360,3.0,5.0,87,0.00,,,0.00,Wunderground v.1.15,2013-08-04 05:04:00,
2013-08-04 01:06:00,70.7,66.6,29.91,North,360,4.0,5.0,87,0.00,,,0.00,Wunderground v.1.15,2013-08-04 05:06:00,
2013-08-04 01:08:00,70.6,66.5,29.91,North,360,4.0,7.0,87,0.00,,,0.00,Wunderground v.1.15,2013-08-04 05:08:00,
2013-08-04 01:09:00,70.6,66.5,29.91,North,360,4.0,4.0,87,0.00,,,0.00,Wunderground v.1.15,2013-08-04 05:09:00,
2013-08-04 01:11:00,70.6,66.5,29.91,North,360,5.0,5.0,87,0.00,,,0.00,Wunderground v.1.15,2013-08-04 05:11:00,
2013-08-04 01:16:00,70.5,66.4,29.91,North,360,5.0,5.0,87,0.00,,,0.00,Wunderground v.1.15,2013-08-04 05:16:00,
2013-08-04 01:18:00,70.6,66.5,29.91,North,360,4.0,5.0,87,0.00,,,0.00,Wunderground v.1.15,2013-08-04 05:18:00,
2013-08-04 01:20:00,70.6,66.5,29.91,North,360,4.0,4.0,87,0.00,,,0.00,Wunderground v.1.15,2013-08-04 05:20:00,
2013-08-04 01:22:00,70.6,66.5,29.91,North,360,3.0,4.0,87,0.00,,,0.00,Wunderground v.1.15,2013-08-04 05:22:00,
2013-08-04 01:24:00,70.5,66.4,29.91,North,360,3.0,4.0,87,0.00,,,0.00,Wunderground v.1.15,2013-08-04 05:24:00,
2013-08-04 01:26:00,70.5,66.4,29.91,North,360,3.0,7.0,87,0.00,,,0.00,Wunderground v.1.15,2013-08-04 05:26:00,
2013-08-04 01:32:00,70.4,66.7,29.90,North,360,4.0,6.0,88,0.00,,,0.00,Wunderground v.1.15,2013-08-04 05:32:00,
2013-08-04 01:34:00,70.4,66.3,29.91,North,360,5.0,6.0,87,0.00,,,0.00,Wunderground v.1.15,2013-08-04 05:34:00,
2013-08-04 01:36:00,70.3,66.6,29.91,North,360,5.0,6.0,88,0.00,,,0.00,Wunderground v.1.15,2013-08-04 05:36:00,
2013-08-04 01:38:00,70.3,66.6,29.91,North,360,5.0,7.0,88,0.00,,,0.00,Wunderground v.1.15,2013-08-04 05:38:00,
2013-08-04 01:42:00,70.2,66.5,29.90,North,360,6.0,7.0,88,0.00,,,0.00,Wunderground v.1.15,2013-08-04 05:42:00,
2013-08-04 01:46:00,70.2,66.5,29.90,North,360,5.0,7.0,88,0.00,,,0.00,Wunderground v.1.15,2013-08-04 05:46:00,
2013-08-04 01:48:00,70.2,66.5,29.90,North,360,5.0,7.0,88,0.00,,,0.00,Wunderground v.1.15,2013-08-04 05:48:00,
2013-08-04 01:50:00,70.1,66.4,29.90,North,360,4.0,8.0,88,0.00,,,0.00,Wunderground v.1.15,2013-08-04 05:50:00,
2013-08-04 01:54:00,70.0,66.3,29.90,North,360,4.0,8.0,88,0.00,,,0.00,Wunderground v.1.15,2013-08-04 05:54:00,
2013-08-04 01:55:00,70.0,66.3,29.90,North,360,4.0,8.0,88,0.00,,,0.00,Wunderground v.1.15,2013-08-04 05:55:00,
2013-08-04 01:58:00,69.9,66.2,29.90,North,360,4.0,8.0,88,0.00,,,0.00,Wunderground v.1.15,2013-08-04 05:58:00,
2013-08-04 02:02:00,70.0,66.6,29.89,North,360,4.0,5.0,89,0.00,,,0.00,Wunderground v.1.15,2013-08-04 06:02:00,
2013-08-04 02:04:00,70.0,66.6,29.89,North,360,4.0,5.0,89,0.00,,,0.00,Wunderground v.1.15,2013-08-04 06:04:00,
2013-08-04 02:08:00,69.9,66.5,29.89,North,360,4.0,5.0,89,0.00,,,0.00,Wunderground v.1.15,2013-08-04 06:08:00,
2013-08-04 02:09:00,69.9,66.5,29.89,North,360,3.0,4.0,89,0.00,,,0.00,Wunderground v.1.15,2013-08-04 06:09:00,
2013-08-04 02:12:00,69.9,66.5,29.89,North,360,3.0,4.0,89,0.00,,,0.00,Wunderground v.1.15,2013-08-04 06:12:00,
2013-08-04 02:14:00,69.9,66.5,29.90,North,360,2.0,4.0,89,0.00,,,0.00,Wunderground v.1.15,2013-08-04 06:14:00,
2013-08-04 02:16:00,69.9,66.5,29.89,North,360,2.0,6.0,89,0.00,,,0.00,Wunderground v.1.15,2013-08-04 06:16:00,
2013-08-04 02:17:00,69.9,66.5,29.89,North,360,2.0,6.0,89,0.00,,,0.00,Wunderground v.1.15,2013-08-04 06:17:00,
2013-08-04 02:19:00,69.9,66.5,29.89,North,360,3.0,6.0,89,0.00,,,0.00,Wunderground v.1.15,2013-08-04 06:19:00,
2013-08-04 02:24:00,70.0,66.3,29.89,North,360,3.0,7.0,88,0.00,,,0.00,Wunderground v.1.15,2013-08-04 06:24:00,
2013-08-04 02:26:00,69.9,66.2,29.90,North,360,4.0,7.0,88,0.00,,,0.00,Wunderground v.1.15,2013-08-04 06:26:00,
2013-08-04 02:27:00,69.9,66.2,29.90,North,360,4.0,7.0,88,0.00,,,0.00,Wunderground v.1.15,2013-08-04 06:27:00,
2013-08-04 02:30:00,69.8,66.1,29.90,North,360,5.0,5.0,88,0.00,,,0.00,Wunderground v.1.15,2013-08-04 06:30:00,
2013-08-04 02:31:00,69.9,66.2,29.90,North,360,5.0,5.0,88,0.00,,,0.00,Wunderground v.1.15,2013-08-04 06:31:00,
2013-08-04 02:33:00,69.9,66.5,29.90,North,360,5.0,5.0,89,0.00,,,0.00,Wunderground v.1.15,2013-08-04 06:33:00,
2013-08-04 02:40:00,69.8,66.1,29.90,North,360,4.0,4.0,88,0.00,,,0.00,Wunderground v.1.15,2013-08-04 06:40:00,
2013-08-04 02:44:00,69.7,66.0,29.90,North,360,5.0,6.0,88,0.00,,,0.00,Wunderground v.1.15,2013-08-04 06:44:00,
2013-08-04 02:45:00,69.7,66.0,29.89,North,360,5.0,8.0,88,0.00,,,0.00,Wunderground v.1.15,2013-08-04 06:45:00,
2013-08-04 02:47:00,69.6,65.9,29.89,North,360,6.0,8.0,88,0.00,,,0.00,Wunderground v.1.15,2013-08-04 06:47:00,
2013-08-04 02:50:00,69.6,65.9,29.89,North,360,6.0,6.0,88,0.00,,,0.00,Wunderground v.1.15,2013-08-04 06:50:00,
2013-08-04 02:51:00,69.6,66.2,29.89,North,360,6.0,6.0,89,0.00,,,0.00,Wunderground v.1.15,2013-08-04 06:51:00,
2013-08-04 02:54:00,69.5,65.8,29.89,North,360,6.0,6.0,88,0.00,,,0.00,Wunderground v.1.15,2013-08-04 06:54:00,
2013-08-04 02:56:00,69.6,66.2,29.89,North,360,5.0,6.0,89,0.00,,,0.00,Wunderground v.1.15,2013-08-04 06:56:00,
2013-08-04 03:00:00,69.5,66.1,29.89,North,360,5.0,5.0,89,0.00,,,0.00,Wunderground v.1.15,2013-08-04 07:00:00,
2013-08-04 03:04:00,69.5,66.1,29.89,North,360,5.0,6.0,89,0.00,,,0.00,Wunderground v.1.15,2013-08-04 07:04:00,
2013-08-04 03:06:00,69.5,66.1,29.89,North,360,5.0,9.0,89,0.00,,,0.00,Wunderground v.1.15,2013-08-04 07:06:00,
2013-08-04 03:07:00,69.4,65.7,29.89,North,360,6.0,9.0,88,0.00,,,0.00,Wunderground v.1.15,2013-08-04 07:07:00,
2013-08-04 03:12:00,69.4,66.0,29.89,North,360,5.0,5.0,89,0.00,,,0.00,Wunderground v.1.15,2013-08-04 07:12:00,
2013-08-04 03:14:00,69.3,65.9,29.89,North,360,5.0,5.0,89,0.00,,,0.00,Wunderground v.1.15,2013-08-04 07:14:00,
2013-08-04 03:16:00,69.3,65.9,29.89,North,360,5.0,7.0,89,0.00,,,0.00,Wunderground v.1.15,2013-08-04 07:16:00,
2013-08-04 03:18:00,69.4,66.0,29.89,North,360,4.0,11.0,89,0.00,,,0.00,Wunderground v.1.15,2013-08-04 07:18:00,
2013-08-04 03:20:00,69.4,66.0,29.89,North,360,5.0,7.0,89,0.00,,,0.00,Wunderground v.1.15,2013-08-04 07:20:00,
2013-08-04 03:21:00,69.4,65.7,29.89,North,360,5.0,7.0,88,0.00,,,0.00,Wunderground v.1.15,2013-08-04 07:21:00,
2013-08-04 03:24:00,69.5,66.1,29.89,North,360,4.0,7.0,89,0.00,,,0.00,Wunderground v.1.15,2013-08-04 07:24:00,
2013-08-04 03:26:00,69.5,66.1,29.89,North,360,4.0,7.0,89,0.00,,,0.00,Wunderground v.1.15,2013-08-04 07:26:00,
2013-08-04 03:30:00,69.5,65.8,29.89,North,360,3.0,3.0,88,0.00,,,0.00,Wunderground v.1.15,2013-08-04 07:30:00,
2013-08-04 03:32:00,69.5,65.8,29.89,North,360,2.0,3.0,88,0.00,,,0.00,Wunderground v.1.15,2013-08-04 07:32:00,
2013-08-04 03:33:00,69.5,65.8,29.89,North,360,1.0,3.0,88,0.00,,,0.00,Wunderground v.1.15,2013-08-04 07:33:00,
2013-08-04 03:36:00,69.5,65.8,29.89,North,360,2.0,3.0,88,0.00,,,0.00,Wunderground v.1.15,2013-08-04 07:36:00,
2013-08-04 03:38:00,69.6,65.9,29.89,North,360,2.0,8.0,88,0.00,,,0.00,Wunderground v.1.15,2013-08-04 07:38:00,
2013-08-04 03:39:00,69.6,65.9,29.89,North,360,2.0,4.0,88,0.00,,,0.00,Wunderground v.1.15,2013-08-04 07:39:00,
2013-08-04 03:42:00,69.6,65.9,29.89,North,360,3.0,4.0,88,0.00,,,0.00,Wunderground v.1.15,2013-08-04 07:42:00,
2013-08-04 03:46:00,69.5,65.8,29.89,North,360,4.0,6.0,88,0.00,,,0.00,Wunderground v.1.15,2013-08-04 07:46:00,
2013-08-04 03:50:00,69.3,65.6,29.89,North,360,5.0,8.0,88,0.00,,,0.00,Wunderground v.1.15,2013-08-04 07:50:00,
2013-08-04 03:52:00,69.2,65.5,29.89,North,360,6.0,8.0,88,0.00,,,0.00,Wunderground v.1.15,2013-08-04 07:52:00,
2013-08-04 03:54:00,69.1,65.4,29.89,North,360,6.0,8.0,88,0.00,,,0.00,Wunderground v.1.15,2013-08-04 07:54:00,
2013-08-04 03:58:00,69.0,65.3,29.90,North,360,6.0,9.0,88,0.00,,,0.00,Wunderground v.1.15,2013-08-04 07:58:00,
2013-08-04 04:02:00,69.0,65.6,29.89,North,360,4.0,5.0,89,0.00,,,0.00,Wunderground v.1.15,2013-08-04 08:02:00,
2013-08-04 04:04:00,69.0,65.6,29.89,North,360,3.0,5.0,89,0.00,,,0.00,Wunderground v.1.15,2013-08-04 08:04:00,
2013-08-04 04:06:00,69.1,65.4,29.89,North,360,3.0,5.0,88,0.00,,,0.00,Wunderground v.1.15,2013-08-04 08:06:00,
2013-08-04 04:10:00,69.0,65.3,29.89,North,360,2.0,3.0,88,0.00,,,0.00,Wunderground v.1.15,2013-08-04 08:10:00,
2013-08-04 04:12:00,69.0,65.6,29.89,North,360,2.0,3.0,89,0.00,,,0.00,Wunderground v.1.15,2013-08-04 08:12:00,
2013-08-04 04:16:00,68.9,65.5,29.89,North,360,2.0,3.0,89,0.00,,,0.00,Wunderground v.1.15,2013-08-04 08:16:00,
2013-08-04 04:19:00,68.7,65.3,29.89,North,360,1.0,1.0,89,0.00,,,0.00,Wunderground v.1.15,2013-08-04 08:19:00,
2013-08-04 04:22:00,68.6,65.2,29.89,North,360,1.0,1.0,89,0.00,,,0.00,Wunderground v.1.15,2013-08-04 08:22:00,
2013-08-04 04:24:00,68.6,65.2,29.89,North,360,0.0,1.0,89,0.00,,,0.00,Wunderground v.1.15,2013-08-04 08:24:00,
2013-08-04 04:26:00,68.5,65.1,29.89,North,360,0.0,1.0,89,0.00,,,0.00,Wunderground v.1.15,2013-08-04 08:26:00,
2013-08-04 04:30:00,68.5,65.1,29.90,North,360,1.0,2.0,89,0.00,,,0.00,Wunderground v.1.15,2013-08-04 08:30:00,
2013-08-04 04:34:00,68.3,64.9,29.90,North,360,3.0,3.0,89,0.00,,,0.00,Wunderground v.1.15,2013-08-04 08:34:00,
2013-08-04 04:36:00,68.4,65.0,29.90,North,360,3.0,5.0,89,0.00,,,0.00,Wunderground v.1.15,2013-08-04 08:36:00,
2013-08-04 04:42:00,68.4,65.0,29.90,North,360,3.0,3.0,89,0.00,,,0.00,Wunderground v.1.15,2013-08-04 08:42:00,
2013-08-04 04:44:00,68.3,64.9,29.90,North,360,3.0,3.0,89,0.00,,,0.00,Wunderground v.1.15,2013-08-04 08:44:00,
2013-08-04 04:48:00,68.4,65.0,29.90,North,360,3.0,3.0,89,0.00,,,0.00,Wunderground v.1.15,2013-08-04 08:48:00,
2013-08-04 04:49:00,68.3,64.9,29.90,North,360,3.0,3.0,89,0.00,,,0.00,Wunderground v.1.15,2013-08-04 08:49:00,
2013-08-04 04:52:00,68.3,64.9,29.90,North,360,3.0,9.0,89,0.00,,,0.00,Wunderground v.1.15,2013-08-04 08:52:00,
2013-08-04 04:55:00,68.3,64.9,29.90,North,360,3.0,9.0,89,0.00,,,0.00,Wunderground v.1.15,2013-08-04 08:55:00,
2013-08-04 05:00:00,68.2,64.8,29.90,North,360,3.0,3.0,89,0.00,,,0.00,Wunderground v.1.15,2013-08-04 09:00:00,
2013-08-04 05:06:00,68.2,64.8,29.90,North,360,2.0,7.0,89,0.00,,,0.00,Wunderground v.1.15,2013-08-04 09:06:00,
2013-08-04 05:10:00,68.2,64.8,29.90,North,360,2.0,4.0,89,0.00,,,0.00,Wunderground v.1.15,2013-08-04 09:10:00,
2013-08-04 05:12:00,68.2,64.8,29.90,North,360,2.0,4.0,89,0.00,,,0.00,Wunderground v.1.15,2013-08-04 09:12:00,
2013-08-04 05:16:00,68.1,64.7,29.90,North,360,2.0,4.0,89,0.00,,,0.00,Wunderground v.1.15,2013-08-04 09:16:00,
2013-08-04 05:18:00,68.1,64.7,29.90,North,360,2.0,4.0,89,0.00,,,0.00,Wunderground v.1.15,2013-08-04 09:18:00,
2013-08-04 05:21:00,68.1,64.7,29.90,North,360,3.0,6.0,89,0.00,,,0.00,Wunderground v.1.15,2013-08-04 09:21:00,
2013-08-04 05:26:00,68.1,64.7,29.90,North,360,4.0,6.0,89,0.00,,,0.00,Wunderground v.1.15,2013-08-04 09:26:00,
2013-08-04 05:28:00,68.0,64.3,29.90,North,360,4.0,9.0,88,0.00,,,0.00,Wunderground v.1.15,2013-08-04 09:28:00,
2013-08-04 05:29:00,68.0,64.3,29.90,North,360,5.0,7.0,88,0.00,,,0.00,Wunderground v.1.15,2013-08-04 09:29:00,
2013-08-04 05:32:00,68.0,64.3,29.90,North,360,5.0,7.0,88,0.00,,,0.00,Wunderground v.1.15,2013-08-04 09:32:00,
2013-08-04 05:34:00,67.9,64.2,29.91,North,360,5.0,7.0,88,0.00,,,0.00,Wunderground v.1.15,2013-08-04 09:34:00,
2013-08-04 05:35:00,67.9,64.2,29.91,North,360,6.0,9.0,88,0.00,,,0.00,Wunderground v.1.15,2013-08-04 09:35:00,
2013-08-04 05:38:00,67.9,64.2,29.91,North,360,7.0,9.0,88,0.00,,,0.00,Wunderground v.1.15,2013-08-04 09:38:00,
2013-08-04 05:40:00,67.9,64.2,29.91,North,360,7.0,7.0,88,0.00,,,0.00,Wunderground v.1.15,2013-08-04 09:40:00,
2013-08-04 05:42:00,67.9,64.2,29.91,North,360,7.0,7.0,88,0.00,,,0.00,Wunderground v.1.15,2013-08-04 09:42:00,
2013-08-04 05:44:00,67.9,63.9,29.91,North,360,7.0,7.0,87,0.00,,,0.00,Wunderground v.1.15,2013-08-04 09:44:00,
2013-08-04 05:46:00,67.9,63.9,29.91,North,360,6.0,7.0,87,0.00,,,0.00,Wunderground v.1.15,2013-08-04 09:46:00,
2013-08-04 05:48:00,67.8,63.8,29.91,North,360,5.0,7.0,87,0.00,,,0.00,Wunderground v.1.15,2013-08-04 09:48:00,
2013-08-04 05:50:00,67.8,63.8,29.91,North,360,5.0,5.0,87,0.00,,,0.00,Wunderground v.1.15,2013-08-04 09:50:00,
2013-08-04 05:52:00,67.8,63.8,29.91,North,360,5.0,6.0,87,0.00,,,0.00,Wunderground v.1.15,2013-08-04 09:52:00,
2013-08-04 05:54:00,67.9,63.9,29.91,North,360,5.0,6.0,87,0.00,,,0.00,Wunderground v.1.15,2013-08-04 09:54:00,
2013-08-04 05:55:00,67.9,63.9,29.91,North,360,5.0,6.0,87,0.00,,,0.00,Wunderground v.1.15,2013-08-04 09:55:00,
2013-08-04 06:00:00,67.9,63.9,29.91,North,360,6.0,6.0,87,0.00,,,0.00,Wunderground v.1.15,2013-08-04 10:00:00,
2013-08-04 06:02:00,67.9,63.9,29.91,North,360,6.0,6.0,87,0.00,,,0.00,Wunderground v.1.15,2013-08-04 10:02:00,
2013-08-04 06:06:00,67.9,63.9,29.91,North,360,5.0,6.0,87,0.00,,,0.00,Wunderground v.1.15,2013-08-04 10:06:00,
2013-08-04 06:07:00,67.9,63.9,29.91,North,360,5.0,6.0,87,0.00,,,0.00,Wunderground v.1.15,2013-08-04 10:07:00,
2013-08-04 06:14:00,68.0,64.0,29.91,North,360,5.0,6.0,87,0.00,,,0.00,Wunderground v.1.15,2013-08-04 10:14:00,
2013-08-04 06:20:00,68.0,64.0,29.91,North,360,4.0,6.0,87,0.00,,,0.00,Wunderground v.1.15,2013-08-04 10:20:00,
2013-08-04 06:22:00,68.1,64.1,29.91,North,360,4.0,6.0,87,0.00,,,0.00,Wunderground v.1.15,2013-08-04 10:22:00,
2013-08-04 06:23:00,68.1,63.8,29.92,North,360,4.0,10.0,86,0.00,,,0.00,Wunderground v.1.15,2013-08-04 10:23:00,
2013-08-04 06:26:00,68.1,63.8,29.92,North,360,4.0,10.0,86,0.00,,,0.00,Wunderground v.1.15,2013-08-04 10:26:00,
2013-08-04 06:32:00,67.9,63.9,29.92,North,360,5.0,5.0,87,0.00,,,0.00,Wunderground v.1.15,2013-08-04 10:32:00,
2013-08-04 06:34:00,67.9,63.9,29.92,North,360,5.0,5.0,87,0.00,,,0.00,Wunderground v.1.15,2013-08-04 10:34:00,
2013-08-04 06:38:00,67.8,63.5,29.92,North,360,4.0,5.0,86,0.00,,,0.00,Wunderground v.1.15,2013-08-04 10:38:00,
2013-08-04 06:39:00,67.7,63.4,29.92,North,360,4.0,4.0,86,0.00,,,0.00,Wunderground v.1.15,2013-08-04 10:39:00,
2013-08-04 06:42:00,67.7,63.4,29.92,North,360,3.0,4.0,86,0.00,,,0.00,Wunderground v.1.15,2013-08-04 10:42:00,
2013-08-04 06:44:00,67.7,63.4,29.92,North,360,3.0,4.0,86,0.00,,,0.00,Wunderground v.1.15,2013-08-04 10:44:00,
2013-08-04 06:48:00,67.6,63.3,29.92,North,360,2.0,6.0,86,0.00,,,0.00,Wunderground v.1.15,2013-08-04 10:48:00,
2013-08-04 06:50:00,67.6,63.3,29.93,North,360,2.0,6.0,86,0.00,,,0.00,Wunderground v.1.15,2013-08-04 10:50:00,
2013-08-04 06:56:00,67.5,63.2,29.93,North,360,4.0,6.0,86,0.00,,,0.00,Wunderground v.1.15,2013-08-04 10:56:00,
2013-08-04 06:58:00,67.5,63.2,29.93,North,360,4.0,6.0,86,0.00,,,0.00,Wunderground v.1.15,2013-08-04 10:58:00,
2013-08-04 06:59:00,67.5,63.2,29.93,North,360,5.0,5.0,86,0.00,,,0.00,Wunderground v.1.15,2013-08-04 10:59:00,
2013-08-04 07:02:00,67.5,63.2,29.93,North,360,5.0,5.0,86,0.00,,,0.00,Wunderground v.1.15,2013-08-04 11:02:00,
2013-08-04 07:06:00,67.5,62.8,29.93,North,360,5.0,7.0,85,0.00,,,0.00,Wunderground v.1.15,2013-08-04 11:06:00,
2013-08-04 07:08:00,67.6,62.9,29.93,North,360,5.0,9.0,85,0.00,,,0.00,Wunderground v.1.15,2013-08-04 11:08:00,
2013-08-04 07:12:00,67.4,62.7,29.93,North,360,6.0,6.0,85,0.00,,,0.00,Wunderground v.1.15,2013-08-04 11:12:00,
2013-08-04 07:14:00,67.4,62.7,29.93,North,360,6.0,6.0,85,0.00,,,0.00,Wunderground v.1.15,2013-08-04 11:14:00,
2013-08-04 07:18:00,67.4,62.7,29.93,North,360,5.0,6.0,85,0.00,,,0.00,Wunderground v.1.15,2013-08-04 11:18:00,
2013-08-04 07:22:00,67.6,62.6,29.93,North,360,5.0,5.0,84,0.00,,,0.00,Wunderground v.1.15,2013-08-04 11:22:00,
2013-08-04 07:26:00,67.8,62.4,29.94,North,360,4.0,9.0,83,0.00,,,0.00,Wunderground v.1.15,2013-08-04 11:26:00,
2013-08-04 07:28:00,67.9,62.2,29.94,North,360,5.0,9.0,82,0.00,,,0.00,Wunderground v.1.15,2013-08-04 11:28:00,
2013-08-04 07:30:00,68.0,62.3,29.94,North,360,5.0,9.0,82,0.00,,,0.00,Wunderground v.1.15,2013-08-04 11:30:00,
2013-08-04 07:34:00,68.3,62.2,29.94,North,360,6.0,9.0,81,0.00,,,0.00,Wunderground v.1.15,2013-08-04 11:34:00,
2013-08-04 07:35:00,68.3,62.2,29.94,North,360,6.0,9.0,81,0.00,,,0.00,Wunderground v.1.15,2013-08-04 11:35:00,
2013-08-04 07:38:00,68.5,62.1,29.94,North,360,6.0,9.0,80,0.00,,,0.00,Wunderground v.1.15,2013-08-04 11:38:00,
2013-08-04 07:40:00,68.7,61.9,29.94,North,360,6.0,9.0,79,0.00,,,0.00,Wunderground v.1.15,2013-08-04 11:40:00,
2013-08-04 07:42:00,68.8,62.0,29.94,North,360,6.0,9.0,79,0.00,,,0.00,Wunderground v.1.15,2013-08-04 11:42:00,
2013-08-04 07:46:00,68.9,61.8,29.94,North,360,6.0,10.0,78,0.00,,,0.00,Wunderground v.1.15,2013-08-04 11:46:00,
2013-08-04 07:52:00,69.0,61.5,29.94,North,360,7.0,7.0,77,0.00,,,0.00,Wunderground v.1.15,2013-08-04 11:52:00,
2013-08-04 07:54:00,69.0,61.5,29.94,North,360,8.0,12.0,77,0.00,,,0.00,Wunderground v.1.15,2013-08-04 11:54:00,
2013-08-04 07:56:00,69.0,61.5,29.94,North,360,8.0,12.0,77,0.00,,,0.00,Wunderground v.1.15,2013-08-04 11:56:00,
2013-08-04 07:58:00,69.0,61.5,29.94,North,360,8.0,12.0,77,0.00,,,0.00,Wunderground v.1.15,2013-08-04 11:58:00,
2013-08-04 08:02:00,69.2,61.3,29.94,North,360,8.0,8.0,76,0.00,,,0.00,Wunderground v.1.15,2013-08-04 12:02:00,
2013-08-04 08:04:00,69.4,61.9,29.94,North,360,7.0,8.0,77,0.00,,,0.00,Wunderground v.1.15,2013-08-04 12:04:00,
2013-08-04 08:06:00,69.5,61.6,29.94,North,360,7.0,8.0,76,0.00,,,0.00,Wunderground v.1.15,2013-08-04 12:06:00,
2013-08-04 08:08:00,69.7,61.8,29.94,North,360,6.0,8.0,76,0.00,,,0.00,Wunderground v.1.15,2013-08-04 12:08:00,
2013-08-04 08:12:00,69.9,61.6,29.94,North,360,5.0,7.0,75,0.00,,,0.00,Wunderground v.1.15,2013-08-04 12:12:00,
2013-08-04 08:14:00,69.9,61.6,29.94,North,360,5.0,7.0,75,0.00,,,0.00,Wunderground v.1.15,2013-08-04 12:14:00,
2013-08-04 08:20:00,70.1,61.4,29.94,North,360,6.0,10.0,74,0.00,,,0.00,Wunderground v.1.15,2013-08-04 12:20:00,
2013-08-04 08:22:00,70.1,61.0,29.94,North,360,6.0,10.0,73,0.00,,,0.00,Wunderground v.1.15,2013-08-04 12:22:00,
2013-08-04 08:24:00,70.2,60.7,29.94,North,360,6.0,10.0,72,0.00,,,0.00,Wunderground v.1.15,2013-08-04 12:24:00,
2013-08-04 08:26:00,70.0,60.6,29.94,North,360,7.0,10.0,72,0.00,,,0.00,Wunderground v.1.15,2013-08-04 12:26:00,
2013-08-04 08:28:00,69.8,60.8,29.94,North,360,8.0,10.0,73,0.00,,,0.00,Wunderground v.1.15,2013-08-04 12:28:00,
2013-08-04 08:34:00,70.5,61.0,29.94,North,360,6.0,7.0,72,0.00,,,0.00,Wunderground v.1.15,2013-08-04 12:34:00,
2013-08-04 08:35:00,70.4,60.9,29.94,North,360,6.0,7.0,72,0.00,,,0.00,Wunderground v.1.15,2013-08-04 12:35:00,
2013-08-04 08:40:00,70.5,61.4,29.94,North,360,6.0,6.0,73,0.00,,,0.00,Wunderground v.1.15,2013-08-04 12:40:00,
2013-08-04 08:42:00,70.6,61.5,29.94,North,360,6.0,7.0,73,0.00,,,0.00,Wunderground v.1.15,2013-08-04 12:42:00,
2013-08-04 08:43:00,70.7,61.2,29.94,North,360,6.0,11.0,72,0.00,,,0.00,Wunderground v.1.15,2013-08-04 12:43:00,
2013-08-04 08:46:00,70.8,60.9,29.94,North,360,7.0,11.0,71,0.00,,,0.00,Wunderground v.1.15,2013-08-04 12:46:00,
2013-08-04 08:48:00,70.8,60.9,29.95,North,360,7.0,11.0,71,0.00,,,0.00,Wunderground v.1.15,2013-08-04 12:48:00,
2013-08-04 08:54:00,71.0,61.1,29.94,North,360,9.0,11.0,71,0.00,,,0.00,Wunderground v.1.15,2013-08-04 12:54:00,
2013-08-04 08:58:00,71.0,61.1,29.95,North,360,9.0,11.0,71,0.00,,,0.00,Wunderground v.1.15,2013-08-04 12:58:00,
2013-08-04 09:00:00,71.2,61.3,29.95,North,360,9.0,9.0,71,0.00,,,0.00,Wunderground v.1.15,2013-08-04 13:00:00,
2013-08-04 09:04:00,71.5,60.8,29.95,North,360,9.0,10.0,69,0.00,,,0.00,Wunderground v.1.15,2013-08-04 13:04:00,
2013-08-04 09:05:00,71.5,61.2,29.95,North,360,9.0,10.0,70,0.00,,,0.00,Wunderground v.1.15,2013-08-04 13:05:00,
2013-08-04 09:08:00,71.5,61.2,29.95,North,360,9.0,10.0,70,0.00,,,0.00,Wunderground v.1.15,2013-08-04 13:08:00,
2013-08-04 09:09:00,71.5,61.2,29.95,North,360,8.0,8.0,70,0.00,,,0.00,Wunderground v.1.15,2013-08-04 13:09:00,
2013-08-04 09:14:00,71.9,61.6,29.95,North,360,7.0,9.0,70,0.00,,,0.00,Wunderground v.1.15,2013-08-04 13:14:00,
2013-08-04 09:18:00,72.1,61.4,29.95,North,360,7.0,12.0,69,0.00,,,0.00,Wunderground v.1.15,2013-08-04 13:18:00,
2013-08-04 09:21:00,72.0,60.9,29.95,North,360,8.0,12.0,68,0.00,,,0.00,Wunderground v.1.15,2013-08-04 13:21:00,
2013-08-04 09:24:00,71.9,61.2,29.95,North,360,8.0,12.0,69,0.00,,,0.00,Wunderground v.1.15,2013-08-04 13:24:00,
2013-08-04 09:26:00,71.9,61.2,29.95,North,360,8.0,12.0,69,0.00,,,0.00,Wunderground v.1.15,2013-08-04 13:26:00,
2013-08-04 09:27:00,72.2,61.5,29.95,North,360,7.0,12.0,69,0.00,,,0.00,Wunderground v.1.15,2013-08-04 13:27:00,
2013-08-04 09:32:00,72.3,61.1,29.95,North,360,7.0,12.0,68,0.00,,,0.00,Wunderground v.1.15,2013-08-04 13:32:00,
2013-08-04 09:34:00,72.4,61.2,29.95,North,360,7.0,12.0,68,0.00,,,0.00,Wunderground v.1.15,2013-08-04 13:34:00,
2013-08-04 09:36:00,72.6,61.0,29.95,North,360,8.0,12.0,67,0.00,,,0.00,Wunderground v.1.15,2013-08-04 13:36:00,
2013-08-04 09:38:00,72.8,60.8,29.95,North,360,8.0,12.0,66,0.00,,,0.00,Wunderground v.1.15,2013-08-04 13:38:00,
2013-08-04 09:39:00,72.6,60.6,29.95,North,360,9.0,10.0,66,0.00,,,0.00,Wunderground v.1.15,2013-08-04 13:39:00,
2013-08-04 09:42:00,72.6,61.0,29.95,North,360,8.0,10.0,67,0.00,,,0.00,Wunderground v.1.15,2013-08-04 13:42:00,
2013-08-04 09:44:00,72.8,60.8,29.95,North,360,8.0,10.0,66,0.00,,,0.00,Wunderground v.1.15,2013-08-04 13:44:00,
2013-08-04 09:45:00,72.8,60.3,29.95,North,360,8.0,11.0,65,0.00,,,0.00,Wunderground v.1.15,2013-08-04 13:45:00,
2013-08-04 09:47:00,72.9,60.4,29.95,North,360,8.0,11.0,65,0.00,,,0.00,Wunderground v.1.15,2013-08-04 13:47:00,
2013-08-04 09:52:00,73.0,60.5,29.95,North,360,8.0,9.0,65,0.00,,,0.00,Wunderground v.1.15,2013-08-04 13:52:00,
2013-08-04 09:54:00,73.0,61.0,29.95,North,360,8.0,9.0,66,0.00,,,0.00,Wunderground v.1.15,2013-08-04 13:54:00,
2013-08-04 09:56:00,73.2,60.7,29.95,North,360,8.0,9.0,65,0.00,,,0.00,Wunderground v.1.15,2013-08-04 13:56:00,
2013-08-04 09:58:00,73.4,60.5,29.95,North,360,8.0,9.0,64,0.00,,,0.00,Wunderground v.1.15,2013-08-04 13:58:00,
2013-08-04 10:00:00,73.6,60.2,29.95,North,360,8.0,8.0,63,0.00,,,0.00,Wunderground v.1.15,2013-08-04 14:00:00,
2013-08-04 10:01:00,73.7,59.9,29.95,North,360,7.0,8.0,62,0.00,,,0.00,Wunderground v.1.15,2013-08-04 14:01:00,
2013-08-04 10:04:00,73.8,60.0,29.95,North,360,7.0,8.0,62,0.00,,,0.00,Wunderground v.1.15,2013-08-04 14:04:00,
2013-08-04 10:08:00,74.3,59.5,29.95,North,360,7.0,8.0,60,0.00,,,0.00,Wunderground v.1.15,2013-08-04 14:08:00,
2013-08-04 10:12:00,74.4,59.1,29.95,North,360,8.0,12.0,59,0.00,,,0.00,Wunderground v.1.15,2013-08-04 14:12:00,
2013-08-04 10:14:00,74.3,59.0,29.95,North,360,8.0,12.0,59,0.00,,,0.00,Wunderground v.1.15,2013-08-04 14:14:00,
2013-08-04 10:16:00,74.4,58.7,29.95,North,360,9.0,12.0,58,0.00,,,0.00,Wunderground v.1.15,2013-08-04 14:16:00,
2013-08-04 10:20:00,75.3,59.0,29.95,North,360,8.0,8.0,57,0.00,,,0.00,Wunderground v.1.15,2013-08-04 14:20:00,
2013-08-04 10:26:00,75.5,58.2,29.95,North,360,7.0,9.0,55,0.00,,,0.00,Wunderground v.1.15,2013-08-04 14:26:00,
2013-08-04 10:28:00,75.2,58.4,29.95,North,360,7.0,9.0,56,0.00,,,0.00,Wunderground v.1.15,2013-08-04 14:28:00,
2013-08-04 10:30:00,75.2,59.4,29.95,North,360,8.0,8.0,58,0.00,,,0.00,Wunderground v.1.15,2013-08-04 14:30:00,
2013-08-04 10:31:00,75.3,59.0,29.95,North,360,7.0,12.0,57,0.00,,,0.00,Wunderground v.1.15,2013-08-04 14:31:00,
2013-08-04 10:34:00,75.3,59.0,29.95,North,360,8.0,15.0,57,0.00,,,0.00,Wunderground v.1.15,2013-08-04 14:34:00,
2013-08-04 10:36:00,75.2,59.4,29.95,North,360,9.0,15.0,58,0.00,,,0.00,Wunderground v.1.15,2013-08-04 14:36:00,
2013-08-04 10:38:00,75.1,58.8,29.95,North,360,9.0,15.0,57,0.00,,,0.00,Wunderground v.1.15,2013-08-04 14:38:00,
2013-08-04 10:39:00,74.9,59.1,29.95,North,360,10.0,10.0,58,0.00,,,0.00,Wunderground v.1.15,2013-08-04 14:39:00,
2013-08-04 10:42:00,74.9,59.1,29.95,North,360,10.0,11.0,58,0.00,,,0.00,Wunderground v.1.15,2013-08-04 14:42:00,
2013-08-04 10:45:00,75.2,58.9,29.95,North,360,9.0,11.0,57,0.00,,,0.00,Wunderground v.1.15,2013-08-04 14:45:00,
2013-08-04 10:48:00,75.2,58.4,29.96,North,360,10.0,12.0,56,0.00,,,0.00,Wunderground v.1.15,2013-08-04 14:48:00,
2013-08-04 10:50:00,74.9,58.6,29.96,North,360,10.0,10.0,57,0.00,,,0.00,Wunderground v.1.15,2013-08-04 14:50:00,
2013-08-04 10:54:00,75.1,58.8,29.96,North,360,9.0,18.0,57,0.00,,,0.00,Wunderground v.1.15,2013-08-04 14:54:00,
2013-08-04 10:57:00,75.1,58.8,29.96,North,360,10.0,18.0,57,0.00,,,0.00,Wunderground v.1.15,2013-08-04 14:57:00,
2013-08-04 11:00:00,75.1,58.8,29.96,North,360,11.0,17.0,57,0.00,,,0.00,Wunderground v.1.15,2013-08-04 15:00:00,
2013-08-04 11:02:00,75.1,58.8,29.96,North,360,12.0,17.0,57,0.00,,,0.00,Wunderground v.1.15,2013-08-04 15:02:00,
2013-08-04 11:05:00,75.5,59.2,29.96,North,360,12.0,17.0,57,0.00,,,0.00,Wunderground v.1.15,2013-08-04 15:05:00,
2013-08-04 11:07:00,75.2,59.4,29.96,North,360,11.0,17.0,58,0.00,,,0.00,Wunderground v.1.15,2013-08-04 15:07:00,
2013-08-04 11:12:00,74.8,59.5,29.96,North,360,10.0,16.0,59,0.00,,,0.00,Wunderground v.1.15,2013-08-04 15:12:00,
2013-08-04 11:13:00,75.0,59.2,29.96,North,360,11.0,16.0,58,0.00,,,0.00,Wunderground v.1.15,2013-08-04 15:13:00,
2013-08-04 11:16:00,75.2,58.9,29.96,North,360,11.0,16.0,57,0.00,,,0.00,Wunderground v.1.15,2013-08-04 15:16:00,
2013-08-04 11:18:00,75.4,58.6,29.96,North,360,11.0,16.0,56,0.00,,,0.00,Wunderground v.1.15,2013-08-04 15:18:00,
2013-08-04 11:20:00,75.1,58.3,29.96,North,360,12.0,12.0,56,0.00,,,0.00,Wunderground v.1.15,2013-08-04 15:20:00,
2013-08-04 11:21:00,75.1,58.8,29.96,North,360,11.0,12.0,57,0.00,,,0.00,Wunderground v.1.15,2013-08-04 15:21:00,
2013-08-04 11:26:00,75.6,58.8,29.96,North,360,11.0,12.0,56,0.00,,,0.00,Wunderground v.1.15,2013-08-04 15:26:00,
2013-08-04 11:29:00,76.1,59.3,29.96,North,360,9.0,11.0,56,0.00,,,0.00,Wunderground v.1.15,2013-08-04 15:29:00,
2013-08-04 11:32:00,76.3,59.4,29.96,North,360,9.0,14.0,56,0.00,,,0.00,Wunderground v.1.15,2013-08-04 15:32:00,
2013-08-04 11:36:00,76.5,59.1,29.96,North,360,9.0,14.0,55,0.00,,,0.00,Wunderground v.1.15,2013-08-04 15:36:00,
2013-08-04 11:39:00,76.1,58.2,29.96,North,360,11.0,14.0,54,0.00,,,0.00,Wunderground v.1.15,2013-08-04 15:39:00,
2013-08-04 11:41:00,76.1,58.2,29.96,North,360,12.0,15.0,54,0.00,,,0.00,Wunderground v.1.15,2013-08-04 15:41:00,
2013-08-04 11:44:00,75.9,58.1,29.96,North,360,13.0,15.0,54,0.00,,,0.00,Wunderground v.1.15,2013-08-04 15:44:00,
2013-08-04 11:46:00,75.8,58.0,29.96,North,360,13.0,15.0,54,0.00,,,0.00,Wunderground v.1.15,2013-08-04 15:46:00,
2013-08-04 11:50:00,76.3,58.4,29.96,North,360,12.0,12.0,54,0.00,,,0.00,Wunderground v.1.15,2013-08-04 15:50:00,
2013-08-04 11:52:00,76.7,58.3,29.96,North,360,11.0,12.0,53,0.00,,,0.00,Wunderground v.1.15,2013-08-04 15:52:00,
2013-08-04 11:54:00,76.8,58.9,29.96,North,360,9.0,12.0,54,0.00,,,0.00,Wunderground v.1.15,2013-08-04 15:54:00,
2013-08-04 11:58:00,77.1,59.2,29.95,North,360,8.0,12.0,54,0.00,,,0.00,Wunderground v.1.15,2013-08-04 15:58:00,
2013-08-04 11:59:00,77.1,59.2,29.96,North,360,8.0,9.0,54,0.00,,,0.00,Wunderground v.1.15,2013-08-04 15:59:00,
2013-08-04 12:01:00,77.1,58.6,29.96,North,360,9.0,9.0,53,0.00,,,0.00,Wunderground v.1.15,2013-08-04 16:01:00,
2013-08-04 12:04:00,76.8,58.9,29.96,North,360,9.0,12.0,54,0.00,,,0.00,Wunderground v.1.15,2013-08-04 16:04:00,
2013-08-04 12:06:00,76.7,59.3,29.95,North,360,9.0,12.0,55,0.00,,,0.00,Wunderground v.1.15,2013-08-04 16:06:00,
2013-08-04 12:08:00,76.9,59.5,29.96,North,360,10.0,12.0,55,0.00,,,0.00,Wunderground v.1.15,2013-08-04 16:08:00,
2013-08-04 12:12:00,77.3,58.3,29.96,North,360,8.0,9.0,52,0.00,,,0.00,Wunderground v.1.15,2013-08-04 16:12:00,
2013-08-04 12:14:00,77.2,58.7,29.96,North,360,8.0,12.0,53,0.00,,,0.00,Wunderground v.1.15,2013-08-04 16:14:00,
2013-08-04 12:15:00,77.2,58.2,29.96,North,360,8.0,12.0,52,0.00,,,0.00,Wunderground v.1.15,2013-08-04 16:15:00,
2013-08-04 12:18:00,76.9,57.9,29.96,North,360,9.0,12.0,52,0.00,,,0.00,Wunderground v.1.15,2013-08-04 16:18:00,
2013-08-04 12:22:00,77.1,58.6,29.95,North,360,10.0,11.0,53,0.00,,,0.00,Wunderground v.1.15,2013-08-04 16:22:00,
2013-08-04 12:26:00,77.7,58.7,29.95,North,360,9.0,12.0,52,0.00,,,0.00,Wunderground v.1.15,2013-08-04 16:26:00,
2013-08-04 12:27:00,78.1,59.0,29.95,North,360,8.0,12.0,52,0.00,,,0.00,Wunderground v.1.15,2013-08-04 16:27:00,
2013-08-04 12:32:00,78.1,58.5,29.95,North,360,10.0,13.0,51,0.00,,,0.00,Wunderground v.1.15,2013-08-04 16:32:00,
2013-08-04 12:33:00,78.0,58.4,29.95,North,360,10.0,13.0,51,0.00,,,0.00,Wunderground v.1.15,2013-08-04 16:33:00,
2013-08-04 12:40:00,77.9,58.9,29.95,North,360,8.0,8.0,52,0.00,,,0.00,Wunderground v.1.15,2013-08-04 16:40:00,
2013-08-04 12:42:00,77.9,58.9,29.95,North,360,7.0,11.0,52,0.00,,,0.00,Wunderground v.1.15,2013-08-04 16:42:00,
2013-08-04 12:45:00,77.6,59.1,29.95,North,360,7.0,11.0,53,0.00,,,0.00,Wunderground v.1.15,2013-08-04 16:45:00,
2013-08-04 12:48:00,77.8,59.3,29.95,North,360,8.0,11.0,53,0.00,,,0.00,Wunderground v.1.15,2013-08-04 16:48:00,
2013-08-04 12:50:00,77.8,59.8,29.95,North,360,8.0,8.0,54,0.00,,,0.00,Wunderground v.1.15,2013-08-04 16:50:00,
2013-08-04 12:52:00,77.7,59.7,29.95,North,360,8.0,11.0,54,0.00,,,0.00,Wunderground v.1.15,2013-08-04 16:52:00,
2013-08-04 12:54:00,77.7,59.7,29.95,North,360,8.0,11.0,54,0.00,,,0.00,Wunderground v.1.15,2013-08-04 16:54:00,
2013-08-04 12:58:00,77.5,60.1,29.95,North,360,8.0,11.0,55,0.00,,,0.00,Wunderground v.1.15,2013-08-04 16:58:00,
2013-08-04 13:00:00,77.6,60.7,29.95,North,360,8.0,8.0,56,0.00,,,0.00,Wunderground v.1.15,2013-08-04 17:00:00,
2013-08-04 13:04:00,77.9,60.4,29.95,North,360,8.0,8.0,55,0.00,,,0.00,Wunderground v.1.15,2013-08-04 17:04:00,
2013-08-04 13:05:00,78.2,59.7,29.95,North,360,7.0,8.0,53,0.00,,,0.00,Wunderground v.1.15,2013-08-04 17:05:00,
2013-08-04 13:10:00,78.4,59.9,29.95,North,360,9.0,9.0,53,0.00,,,0.00,Wunderground v.1.15,2013-08-04 17:10:00,
2013-08-04 13:12:00,78.5,59.4,29.95,North,360,8.0,11.0,52,0.00,,,0.00,Wunderground v.1.15,2013-08-04 17:12:00,
2013-08-04 13:14:00,78.3,59.8,29.95,North,360,8.0,11.0,53,0.00,,,0.00,Wunderground v.1.15,2013-08-04 17:14:00,
2013-08-04 13:20:00,78.1,59.6,29.95,North,360,10.0,10.0,53,0.00,,,0.00,Wunderground v.1.15,2013-08-04 17:20:00,
2013-08-04 13:21:00,78.3,59.8,29.95,North,360,10.0,10.0,53,0.00,,,0.00,Wunderground v.1.15,2013-08-04 17:21:00,
2013-08-04 13:24:00,78.5,59.9,29.95,North,360,10.0,14.0,53,0.00,,,0.00,Wunderground v.1.15,2013-08-04 17:24:00,
2013-08-04 13:27:00,78.8,59.7,29.95,North,360,9.0,14.0,52,0.00,,,0.00,Wunderground v.1.15,2013-08-04 17:27:00,
2013-08-04 13:29:00,78.7,59.6,29.95,North,360,9.0,9.0,52,0.00,,,0.00,Wunderground v.1.15,2013-08-04 17:29:00,
2013-08-04 13:34:00,78.8,60.2,29.95,North,360,9.0,10.0,53,0.00,,,0.00,Wunderground v.1.15,2013-08-04 17:34:00,
2013-08-04 13:40:00,79.2,59.5,29.94,North,360,8.0,20.0,51,0.00,,,0.00,Wunderground v.1.15,2013-08-04 17:40:00,
2013-08-04 13:42:00,79.3,59.0,29.95,North,360,9.0,20.0,50,0.00,,,0.00,Wunderground v.1.15,2013-08-04 17:42:00,
2013-08-04 13:44:00,79.3,59.0,29.94,North,360,9.0,20.0,50,0.00,,,0.00,Wunderground v.1.15,2013-08-04 17:44:00,
2013-08-04 13:46:00,79.1,59.4,29.94,North,360,10.0,20.0,51,0.00,,,0.00,Wunderground v.1.15,2013-08-04 17:46:00,
2013-08-04 13:48:00,79.3,59.6,29.94,North,360,11.0,20.0,51,0.00,,,0.00,Wunderground v.1.15,2013-08-04 17:48:00,
2013-08-04 13:51:00,79.2,59.5,29.94,North,360,12.0,12.0,51,0.00,,,0.00,Wunderground v.1.15,2013-08-04 17:51:00,
2013-08-04 13:54:00,79.1,59.4,29.94,North,360,12.0,12.0,51,0.00,,,0.00,Wunderground v.1.15,2013-08-04 17:54:00,
2013-08-04 13:56:00,79.0,59.9,29.94,North,360,11.0,12.0,52,0.00,,,0.00,Wunderground v.1.15,2013-08-04 17:56:00,
2013-08-04 13:59:00,78.9,59.8,29.94,North,360,11.0,11.0,52,0.00,,,0.00,Wunderground v.1.15,2013-08-04 17:59:00,
2013-08-04 14:02:00,79.0,60.4,29.94,North,360,9.0,11.0,53,0.00,,,0.00,Wunderground v.1.15,2013-08-04 18:02:00,
2013-08-04 14:08:00,79.4,60.8,29.94,North,360,9.0,12.0,53,0.00,,,0.00,Wunderground v.1.15,2013-08-04 18:08:00,
2013-08-04 14:10:00,79.7,60.0,29.94,North,360,9.0,16.0,51,0.00,,,0.00,Wunderground v.1.15,2013-08-04 18:10:00,
2013-08-04 14:14:00,79.8,58.4,29.94,North,360,11.0,16.0,48,0.00,,,0.00,Wunderground v.1.15,2013-08-04 18:14:00,
2013-08-04 14:16:00,79.6,58.8,29.94,North,360,11.0,16.0,49,0.00,,,0.00,Wunderground v.1.15,2013-08-04 18:16:00,
2013-08-04 14:17:00,79.1,58.9,29.94,North,360,13.0,16.0,50,0.00,,,0.00,Wunderground v.1.15,2013-08-04 18:17:00,
2013-08-04 14:20:00,79.0,58.8,29.94,North,360,14.0,14.0,50,0.00,,,0.00,Wunderground v.1.15,2013-08-04 18:20:00,
2013-08-04 14:22:00,79.3,58.5,29.93,North,360,14.0,25.0,49,0.00,,,0.00,Wunderground v.1.15,2013-08-04 18:22:00,
2013-08-04 14:24:00,79.4,57.4,29.94,North,360,15.0,25.0,47,0.00,,,0.00,Wunderground v.1.15,2013-08-04 18:24:00,
2013-08-04 14:26:00,79.4,57.4,29.93,North,360,15.0,25.0,47,0.00,,,0.00,Wunderground v.1.15,2013-08-04 18:26:00,
2013-08-04 14:27:00,79.4,57.4,29.94,North,360,15.0,25.0,47,0.00,,,0.00,Wunderground v.1.15,2013-08-04 18:27:00,
2013-08-04 14:32:00,79.6,58.2,29.94,North,360,15.0,15.0,48,0.00,,,0.00,Wunderground v.1.15,2013-08-04 18:32:00,
2013-08-04 14:34:00,79.7,58.3,29.94,North,360,15.0,15.0,48,0.00,,,0.00,Wunderground v.1.15,2013-08-04 18:34:00,
2013-08-04 14:36:00,79.8,58.9,29.94,North,360,13.0,15.0,49,0.00,,,0.00,Wunderground v.1.15,2013-08-04 18:36:00,
2013-08-04 14:39:00,80.2,58.7,29.93,North,360,11.0,11.0,48,0.00,,,0.00,Wunderground v.1.15,2013-08-04 18:39:00,
2013-08-04 14:42:00,80.3,58.2,29.94,North,360,10.0,11.0,47,0.00,,,0.00,Wunderground v.1.15,2013-08-04 18:42:00,
2013-08-04 14:43:00,80.2,58.1,29.94,North,360,10.0,12.0,47,0.00,,,0.00,Wunderground v.1.15,2013-08-04 18:43:00,
2013-08-04 14:46:00,80.0,58.0,29.94,North,360,12.0,13.0,47,0.00,,,0.00,Wunderground v.1.15,2013-08-04 18:46:00,
2013-08-04 14:48:00,79.9,57.9,29.94,North,360,12.0,13.0,47,0.00,,,0.00,Wunderground v.1.15,2013-08-04 18:48:00,
2013-08-04 14:49:00,79.9,57.9,29.93,North,360,12.0,13.0,47,0.00,,,0.00,Wunderground v.1.15,2013-08-04 18:49:00,
2013-08-04 14:55:00,79.8,57.8,29.93,North,360,13.0,15.0,47,0.00,,,0.00,Wunderground v.1.15,2013-08-04 18:55:00,
2013-08-04 15:00:00,80.1,57.5,29.93,North,360,13.0,13.0,46,0.00,,,0.00,Wunderground v.1.15,2013-08-04 19:00:00,
2013-08-04 15:04:00,80.5,58.4,29.93,North,360,13.0,14.0,47,0.00,,,0.00,Wunderground v.1.15,2013-08-04 19:04:00,
2013-08-04 15:06:00,80.8,58.7,29.93,North,360,12.0,14.0,47,0.00,,,0.00,Wunderground v.1.15,2013-08-04 19:06:00,
2013-08-04 15:08:00,81.1,59.0,29.93,North,360,12.0,18.0,47,0.00,,,0.00,Wunderground v.1.15,2013-08-04 19:08:00,
2013-08-04 15:12:00,80.5,58.4,29.93,North,360,12.0,17.0,47,0.00,,,0.00,Wunderground v.1.15,2013-08-04 19:12:00,
2013-08-04 15:14:00,80.1,58.6,29.93,North,360,13.0,17.0,48,0.00,,,0.00,Wunderground v.1.15,2013-08-04 19:14:00,
2013-08-04 15:15:00,80.3,58.8,29.93,North,360,13.0,19.0,48,0.00,,,0.00,Wunderground v.1.15,2013-08-04 19:15:00,
2013-08-04 15:17:00,80.2,58.7,29.93,North,360,15.0,19.0,48,0.00,,,0.00,Wunderground v.1.15,2013-08-04 19:17:00,
2013-08-04 15:20:00,79.9,59.0,29.93,North,360,15.0,15.0,49,0.00,,,0.00,Wunderground v.1.15,2013-08-04 19:20:00,
2013-08-04 15:22:00,79.9,58.5,29.93,North,360,14.0,17.0,48,0.00,,,0.00,Wunderground v.1.15,2013-08-04 19:22:00,
2013-08-04 15:26:00,80.2,58.7,29.93,North,360,14.0,17.0,48,0.00,,,0.00,Wunderground v.1.15,2013-08-04 19:26:00,
2013-08-04 15:28:00,80.0,58.5,29.93,North,360,13.0,17.0,48,0.00,,,0.00,Wunderground v.1.15,2013-08-04 19:28:00,
2013-08-04 15:29:00,80.0,59.1,29.93,North,360,12.0,14.0,49,0.00,,,0.00,Wunderground v.1.15,2013-08-04 19:29:00,
2013-08-04 15:34:00,80.3,58.8,29.93,North,360,13.0,23.0,48,0.00,,,0.00,Wunderground v.1.15,2013-08-04 19:34:00,
2013-08-04 15:35:00,80.3,58.2,29.93,North,360,13.0,23.0,47,0.00,,,0.00,Wunderground v.1.15,2013-08-04 19:35:00,
2013-08-04 15:39:00,80.1,58.0,29.93,North,360,14.0,14.0,47,0.00,,,0.00,Wunderground v.1.15,2013-08-04 19:39:00,
2013-08-04 15:42:00,80.0,58.0,29.93,North,360,15.0,18.0,47,0.00,,,0.00,Wunderground v.1.15,2013-08-04 19:42:00,
2013-08-04 15:44:00,80.0,58.5,29.93,North,360,15.0,18.0,48,0.00,,,0.00,Wunderground v.1.15,2013-08-04 19:44:00,
2013-08-04 15:46:00,80.0,58.5,29.93,North,360,14.0,18.0,48,0.00,,,0.00,Wunderground v.1.15,2013-08-04 19:46:00,
2013-08-04 15:50:00,79.9,58.5,29.92,North,360,14.0,19.0,48,0.00,,,0.00,Wunderground v.1.15,2013-08-04 19:50:00,
2013-08-04 15:54:00,79.9,58.5,29.93,North,360,15.0,22.0,48,0.00,,,0.00,Wunderground v.1.15,2013-08-04 19:54:00,
2013-08-04 15:56:00,79.8,58.4,29.92,North,360,16.0,22.0,48,0.00,,,0.00,Wunderground v.1.15,2013-08-04 19:56:00,
2013-08-04 15:58:00,79.8,57.8,29.92,North,360,17.0,22.0,47,0.00,,,0.00,Wunderground v.1.15,2013-08-04 19:58:00,
2013-08-04 16:00:00,79.9,57.9,29.92,North,360,17.0,21.0,47,0.00,,,0.00,Wunderground v.1.15,2013-08-04 20:00:00,
2013-08-04 16:02:00,79.7,58.3,29.92,North,360,16.0,21.0,48,0.00,,,0.00,Wunderground v.1.15,2013-08-04 20:02:00,
2013-08-04 16:03:00,79.9,58.5,29.92,North,360,16.0,21.0,48,0.00,,,0.00,Wunderground v.1.15,2013-08-04 20:03:00,
2013-08-04 16:10:00,80.4,58.3,29.93,North,360,14.0,18.0,47,0.00,,,0.00,Wunderground v.1.15,2013-08-04 20:10:00,
2013-08-04 16:14:00,80.2,58.1,29.93,North,360,14.0,20.0,47,0.00,,,0.00,Wunderground v.1.15,2013-08-04 20:14:00,
2013-08-04 16:17:00,80.2,58.1,29.93,North,360,15.0,20.0,47,0.00,,,0.00,Wunderground v.1.15,2013-08-04 20:17:00,
2013-08-04 16:22:00,80.5,57.8,29.93,North,360,14.0,19.0,46,0.00,,,0.00,Wunderground v.1.15,2013-08-04 20:22:00,
2013-08-04 16:24:00,80.5,57.8,29.93,North,360,14.0,19.0,46,0.00,,,0.00,Wunderground v.1.15,2013-08-04 20:24:00,
2013-08-04 16:26:00,80.8,58.7,29.93,North,360,12.0,22.0,47,0.00,,,0.00,Wunderground v.1.15,2013-08-04 20:26:00,
2013-08-04 16:28:00,80.7,58.0,29.93,North,360,12.0,22.0,46,0.00,,,0.00,Wunderground v.1.15,2013-08-04 20:28:00,
2013-08-04 16:29:00,80.5,58.4,29.93,North,360,12.0,12.0,47,0.00,,,0.00,Wunderground v.1.15,2013-08-04 20:29:00,
2013-08-04 16:33:00,80.3,58.2,29.93,North,360,12.0,14.0,47,0.00,,,0.00,Wunderground v.1.15,2013-08-04 20:33:00,
2013-08-04 16:36:00,80.3,58.2,29.93,North,360,12.0,14.0,47,0.00,,,0.00,Wunderground v.1.15,2013-08-04 20:36:00,
2013-08-04 16:38:00,80.3,58.2,29.93,North,360,12.0,14.0,47,0.00,,,0.00,Wunderground v.1.15,2013-08-04 20:38:00,
2013-08-04 16:39:00,80.3,58.2,29.93,North,360,12.0,20.0,47,0.00,,,0.00,Wunderground v.1.15,2013-08-04 20:39:00,
2013-08-04 16:42:00,80.3,58.2,29.93,North,360,12.0,20.0,47,0.00,,,0.00,Wunderground v.1.15,2013-08-04 20:42:00,
2013-08-04 16:44:00,80.4,57.7,29.93,North,360,10.0,20.0,46,0.00,,,0.00,Wunderground v.1.15,2013-08-04 20:44:00,
2013-08-04 16:50:00,80.3,58.2,29.93,North,360,11.0,12.0,47,0.00,,,0.00,Wunderground v.1.15,2013-08-04 20:50:00,
2013-08-04 16:54:00,80.2,57.5,29.93,North,360,12.0,12.0,46,0.00,,,0.00,Wunderground v.1.15,2013-08-04 20:54:00,
2013-08-04 16:56:00,80.2,57.5,29.93,North,360,12.0,13.0,46,0.00,,,0.00,Wunderground v.1.15,2013-08-04 20:56:00,
2013-08-04 16:58:00,80.3,57.6,29.93,North,360,12.0,13.0,46,0.00,,,0.00,Wunderground v.1.15,2013-08-04 20:58:00,
2013-08-04 17:01:00,80.3,57.6,29.93,North,360,12.0,13.0,46,0.00,,,0.00,Wunderground v.1.15,2013-08-04 21:01:00,
2013-08-04 17:04:00,80.1,57.5,29.93,North,360,12.0,14.0,46,0.00,,,0.00,Wunderground v.1.15,2013-08-04 21:04:00,
2013-08-04 17:09:00,80.2,57.5,29.93,North,360,12.0,12.0,46,0.00,,,0.00,Wunderground v.1.15,2013-08-04 21:09:00,
2013-08-04 17:12:00,80.4,58.3,29.93,North,360,11.0,17.0,47,0.00,,,0.00,Wunderground v.1.15,2013-08-04 21:12:00,
2013-08-04 17:15:00,80.9,58.2,29.93,North,360,10.0,17.0,46,0.00,,,0.00,Wunderground v.1.15,2013-08-04 21:15:00,
2013-08-04 17:20:00,81.2,57.8,29.93,North,360,10.0,22.0,45,0.00,,,0.00,Wunderground v.1.15,2013-08-04 21:20:00,
2013-08-04 17:24:00,80.3,57.6,29.93,North,360,11.0,22.0,46,0.00,,,0.00,Wunderground v.1.15,2013-08-04 21:24:00,
2013-08-04 17:29:00,79.6,57.0,29.93,North,360,14.0,14.0,46,0.00,,,0.00,Wunderground v.1.15,2013-08-04 21:29:00,
2013-08-04 17:32:00,79.6,57.0,29.93,North,360,14.0,14.0,46,0.00,,,0.00,Wunderground v.1.15,2013-08-04 21:32:00,
2013-08-04 17:37:00,79.6,56.4,29.93,North,360,13.0,19.0,45,0.00,,,0.00,Wunderground v.1.15,2013-08-04 21:37:00,
2013-08-04 17:40:00,79.7,56.5,29.93,North,360,12.0,12.0,45,0.00,,,0.00,Wunderground v.1.15,2013-08-04 21:40:00,
2013-08-04 17:44:00,79.9,56.7,29.93,North,360,13.0,16.0,45,0.00,,,0.00,Wunderground v.1.15,2013-08-04 21:44:00,
2013-08-04 17:47:00,80.3,56.4,29.93,North,360,12.0,16.0,44,0.00,,,0.00,Wunderground v.1.15,2013-08-04 21:47:00,
2013-08-04 17:50:00,80.3,57.0,29.93,North,360,12.0,12.0,45,0.00,,,0.00,Wunderground v.1.15,2013-08-04 21:50:00,
2013-08-04 17:52:00,80.3,56.4,29.93,North,360,12.0,16.0,44,0.00,,,0.00,Wunderground v.1.15,2013-08-04 21:52:00,
2013-08-04 17:54:00,80.2,56.3,29.93,North,360,12.0,16.0,44,0.00,,,0.00,Wunderground v.1.15,2013-08-04 21:54:00,
2013-08-04 17:56:00,80.0,56.1,29.93,North,360,12.0,16.0,44,0.00,,,0.00,Wunderground v.1.15,2013-08-04 21:56:00,
2013-08-04 17:58:00,80.1,56.2,29.93,North,360,11.0,16.0,44,0.00,,,0.00,Wunderground v.1.15,2013-08-04 21:58:00,
2013-08-04 17:59:00,80.2,56.3,29.94,North,360,11.0,13.0,44,0.00,,,0.00,Wunderground v.1.15,2013-08-04 21:59:00,
2013-08-04 18:04:00,79.6,55.8,29.93,North,360,11.0,16.0,44,0.00,,,0.00,Wunderground v.1.15,2013-08-04 22:04:00,
2013-08-04 18:06:00,79.6,55.8,29.93,North,360,11.0,16.0,44,0.00,,,0.00,Wunderground v.1.15,2013-08-04 22:06:00,
2013-08-04 18:10:00,79.8,55.9,29.93,North,360,12.0,12.0,44,0.00,,,0.00,Wunderground v.1.15,2013-08-04 22:10:00,
2013-08-04 18:14:00,80.0,56.1,29.93,North,360,11.0,12.0,44,0.00,,,0.00,Wunderground v.1.15,2013-08-04 22:14:00,
2013-08-04 18:18:00,80.2,56.9,29.93,North,360,11.0,12.0,45,0.00,,,0.00,Wunderground v.1.15,2013-08-04 22:18:00,
2013-08-04 18:20:00,80.2,56.3,29.94,North,360,11.0,13.0,44,0.00,,,0.00,Wunderground v.1.15,2013-08-04 22:20:00,
2013-08-04 18:24:00,80.1,56.8,29.94,North,360,10.0,15.0,45,0.00,,,0.00,Wunderground v.1.15,2013-08-04 22:24:00,
2013-08-04 18:26:00,80.0,56.1,29.94,North,360,10.0,15.0,44,0.00,,,0.00,Wunderground v.1.15,2013-08-04 22:26:00,
2013-08-04 18:28:00,79.9,56.0,29.94,North,360,11.0,15.0,44,0.00,,,0.00,Wunderground v.1.15,2013-08-04 22:28:00,
2013-08-04 18:29:00,79.8,55.9,29.94,North,360,11.0,11.0,44,0.00,,,0.00,Wunderground v.1.15,2013-08-04 22:29:00,
2013-08-04 18:32:00,79.7,55.9,29.94,North,360,11.0,11.0,44,0.00,,,0.00,Wunderground v.1.15,2013-08-04 22:32:00,
2013-08-04 18:34:00,79.8,55.9,29.94,North,360,11.0,11.0,44,0.00,,,0.00,Wunderground v.1.15,2013-08-04 22:34:00,
2013-08-04 18:40:00,79.7,55.9,29.94,North,360,11.0,11.0,44,0.00,,,0.00,Wunderground v.1.15,2013-08-04 22:40:00,
2013-08-04 18:42:00,79.5,55.7,29.94,North,360,10.0,12.0,44,0.00,,,0.00,Wunderground v.1.15,2013-08-04 22:42:00,
2013-08-04 18:46:00,79.4,56.2,29.94,North,360,10.0,12.0,45,0.00,,,0.00,Wunderground v.1.15,2013-08-04 22:46:00,
2013-08-04 18:48:00,79.3,56.1,29.94,North,360,10.0,12.0,45,0.00,,,0.00,Wunderground v.1.15,2013-08-04 22:48:00,
2013-08-04 18:49:00,79.2,56.0,29.94,North,360,10.0,10.0,45,0.00,,,0.00,Wunderground v.1.15,2013-08-04 22:49:00,
2013-08-04 18:52:00,79.3,56.1,29.94,North,360,10.0,10.0,45,0.00,,,0.00,Wunderground v.1.15,2013-08-04 22:52:00,
2013-08-04 18:54:00,79.3,56.1,29.95,North,360,10.0,11.0,45,0.00,,,0.00,Wunderground v.1.15,2013-08-04 22:54:00,
2013-08-04 18:55:00,79.2,56.0,29.95,North,360,10.0,11.0,45,0.00,,,0.00,Wunderground v.1.15,2013-08-04 22:55:00,
2013-08-04 18:58:00,79.2,56.0,29.95,North,360,9.0,11.0,45,0.00,,,0.00,Wunderground v.1.15,2013-08-04 22:58:00,
2013-08-04 19:00:00,79.3,56.7,29.95,North,360,8.0,8.0,46,0.00,,,0.00,Wunderground v.1.15,2013-08-04 23:00:00,
2013-08-04 19:02:00,79.3,56.7,29.95,North,360,7.0,8.0,46,0.00,,,0.00,Wunderground v.1.15,2013-08-04 23:02:00,
2013-08-04 19:05:00,79.3,57.3,29.95,North,360,7.0,9.0,47,0.00,,,0.00,Wunderground v.1.15,2013-08-04 23:05:00,
2013-08-04 19:08:00,79.2,57.2,29.95,North,360,6.0,10.0,47,0.00,,,0.00,Wunderground v.1.15,2013-08-04 23:08:00,
2013-08-04 19:09:00,79.1,57.1,29.95,North,360,7.0,10.0,47,0.00,,,0.00,Wunderground v.1.15,2013-08-04 23:09:00,
2013-08-04 19:12:00,78.9,57.0,29.95,North,360,8.0,10.0,47,0.00,,,0.00,Wunderground v.1.15,2013-08-04 23:12:00,
2013-08-04 19:13:00,78.8,56.3,29.95,North,360,8.0,11.0,46,0.00,,,0.00,Wunderground v.1.15,2013-08-04 23:13:00,
2013-08-04 19:20:00,78.4,56.5,29.96,North,360,9.0,12.0,47,0.00,,,0.00,Wunderground v.1.15,2013-08-04 23:20:00,
2013-08-04 19:22:00,78.3,56.4,29.96,North,360,9.0,12.0,47,0.00,,,0.00,Wunderground v.1.15,2013-08-04 23:22:00,
2013-08-04 19:24:00,78.4,56.5,29.96,North,360,9.0,13.0,47,0.00,,,0.00,Wunderground v.1.15,2013-08-04 23:24:00,
2013-08-04 19:26:00,78.4,55.9,29.96,North,360,9.0,13.0,46,0.00,,,0.00,Wunderground v.1.15,2013-08-04 23:26:00,
2013-08-04 19:29:00,78.5,56.6,29.96,North,360,9.0,10.0,47,0.00,,,0.00,Wunderground v.1.15,2013-08-04 23:29:00,
2013-08-04 19:34:00,78.3,56.4,29.96,North,360,9.0,11.0,47,0.00,,,0.00,Wunderground v.1.15,2013-08-04 23:34:00,
2013-08-04 19:36:00,78.5,56.6,29.96,North,360,9.0,11.0,47,0.00,,,0.00,Wunderground v.1.15,2013-08-04 23:36:00,
2013-08-04 19:39:00,78.6,56.7,29.96,North,360,7.0,7.0,47,0.00,,,0.00,Wunderground v.1.15,2013-08-04 23:39:00,
2013-08-04 19:45:00,78.3,56.4,29.97,North,360,7.0,11.0,47,0.00,,,0.00,Wunderground v.1.15,2013-08-04 23:45:00,
2013-08-04 19:48:00,78.3,56.4,29.97,North,360,7.0,11.0,47,0.00,,,0.00,Wunderground v.1.15,2013-08-04 23:48:00,
2013-08-04 19:50:00,78.5,56.6,29.96,North,360,6.0,6.0,47,0.00,,,0.00,Wunderground v.1.15,2013-08-04 23:50:00,
2013-08-04 19:51:00,78.5,56.6,29.97,North,360,5.0,6.0,47,0.00,,,0.00,Wunderground v.1.15,2013-08-04 23:51:00,
2013-08-04 19:56:00,78.3,56.4,29.97,North,360,4.0,6.0,47,0.00,,,0.00,Wunderground v.1.15,2013-08-04 23:56:00,
2013-08-04 19:58:00,78.4,56.5,29.97,North,360,4.0,6.0,47,0.00,,,0.00,Wunderground v.1.15,2013-08-04 23:58:00,
2013-08-04 19:59:00,78.4,56.5,29.97,North,360,4.0,4.0,47,0.00,,,0.00,Wunderground v.1.15,2013-08-04 23:59:00,
2013-08-04 20:02:00,78.2,56.3,29.97,North,360,4.0,4.0,47,0.00,,,0.00,Wunderground v.1.15,2013-08-05 00:02:00,
2013-08-04 20:04:00,78.2,56.3,29.97,North,360,4.0,4.0,47,0.00,,,0.00,Wunderground v.1.15,2013-08-05 00:04:00,
2013-08-04 20:07:00,78.3,56.4,29.97,North,360,3.0,4.0,47,0.00,,,0.00,Wunderground v.1.15,2013-08-05 00:07:00,
2013-08-04 20:10:00,78.1,56.2,29.97,North,360,3.0,5.0,47,0.00,,,0.00,Wunderground v.1.15,2013-08-05 00:10:00,
2013-08-04 20:11:00,77.9,56.6,29.97,North,360,4.0,5.0,48,0.00,,,0.00,Wunderground v.1.15,2013-08-05 00:11:00,
2013-08-04 20:16:00,77.7,56.4,29.97,North,360,4.0,5.0,48,0.00,,,0.00,Wunderground v.1.15,2013-08-05 00:16:00,
2013-08-04 20:18:00,77.7,56.4,29.97,North,360,5.0,5.0,48,0.00,,,0.00,Wunderground v.1.15,2013-08-05 00:18:00,
2013-08-04 20:20:00,77.6,56.4,29.97,North,360,4.0,4.0,48,0.00,,,0.00,Wunderground v.1.15,2013-08-05 00:20:00,
2013-08-04 20:21:00,77.6,56.4,29.97,North,360,3.0,4.0,48,0.00,,,0.00,Wunderground v.1.15,2013-08-05 00:21:00,
2013-08-04 20:28:00,77.4,56.2,29.97,North,360,2.0,4.0,48,0.00,,,0.00,Wunderground v.1.15,2013-08-05 00:28:00,
2013-08-04 20:29:00,77.4,56.7,29.97,North,360,1.0,1.0,49,0.00,,,0.00,Wunderground v.1.15,2013-08-05 00:29:00,
2013-08-04 20:34:00,77.4,56.2,29.97,North,360,1.0,3.0,48,0.00,,,0.00,Wunderground v.1.15,2013-08-05 00:34:00,
2013-08-04 20:36:00,77.3,56.6,29.97,North,360,2.0,5.0,49,0.00,,,0.00,Wunderground v.1.15,2013-08-05 00:36:00,
2013-08-04 20:40:00,77.1,56.5,29.97,North,360,2.0,2.0,49,0.00,,,0.00,Wunderground v.1.15,2013-08-05 00:40:00,
2013-08-04 20:41:00,77.1,56.5,29.97,North,360,2.0,2.0,49,0.00,,,0.00,Wunderground v.1.15,2013-08-05 00:41:00,
2013-08-04 20:44:00,77.2,56.6,29.97,North,360,2.0,4.0,49,0.00,,,0.00,Wunderground v.1.15,2013-08-05 00:44:00,
2013-08-04 20:46:00,77.3,56.1,29.97,North,360,3.0,4.0,48,0.00,,,0.00,Wunderground v.1.15,2013-08-05 00:46:00,
2013-08-04 20:50:00,77.2,56.0,29.97,North,360,3.0,5.0,48,0.00,,,0.00,Wunderground v.1.15,2013-08-05 00:50:00,
2013-08-04 20:51:00,77.1,56.5,29.97,North,360,4.0,5.0,49,0.00,,,0.00,Wunderground v.1.15,2013-08-05 00:51:00,
2013-08-04 20:54:00,77.1,56.5,29.98,North,360,4.0,5.0,49,0.00,,,0.00,Wunderground v.1.15,2013-08-05 00:54:00,
2013-08-04 20:56:00,77.1,56.5,29.97,North,360,3.0,5.0,49,0.00,,,0.00,Wunderground v.1.15,2013-08-05 00:56:00,
2013-08-04 21:02:00,76.7,56.7,29.98,North,360,3.0,4.0,50,0.00,,,0.00,Wunderground v.1.15,2013-08-05 01:02:00,
2013-08-04 21:04:00,76.5,56.5,29.97,North,360,3.0,4.0,50,0.00,,,0.00,Wunderground v.1.15,2013-08-05 01:04:00,
2013-08-04 21:07:00,76.3,56.8,29.97,North,360,4.0,4.0,51,0.00,,,0.00,Wunderground v.1.15,2013-08-05 01:07:00,
2013-08-04 21:10:00,76.1,56.7,29.97,North,360,4.0,4.0,51,0.00,,,0.00,Wunderground v.1.15,2013-08-05 01:10:00,
2013-08-04 21:13:00,75.9,57.0,29.98,North,360,3.0,5.0,52,0.00,,,0.00,Wunderground v.1.15,2013-08-05 01:13:00,
2013-08-04 21:16:00,75.7,56.8,29.98,North,360,4.0,5.0,52,0.00,,,0.00,Wunderground v.1.15,2013-08-05 01:16:00,
2013-08-04 21:18:00,75.6,56.7,29.98,North,360,3.0,5.0,52,0.00,,,0.00,Wunderground v.1.15,2013-08-05 01:18:00,
2013-08-04 21:19:00,75.6,56.7,29.98,North,360,4.0,4.0,52,0.00,,,0.00,Wunderground v.1.15,2013-08-05 01:19:00,
2013-08-04 21:24:00,75.5,57.2,29.98,North,360,3.0,4.0,53,0.00,,,0.00,Wunderground v.1.15,2013-08-05 01:24:00,
2013-08-04 21:26:00,75.5,57.2,29.98,North,360,3.0,4.0,53,0.00,,,0.00,Wunderground v.1.15,2013-08-05 01:26:00,
2013-08-04 21:30:00,75.4,57.1,29.98,North,360,3.0,3.0,53,0.00,,,0.00,Wunderground v.1.15,2013-08-05 01:30:00,
2013-08-04 21:31:00,75.4,57.1,29.98,North,360,2.0,3.0,53,0.00,,,0.00,Wunderground v.1.15,2013-08-05 01:31:00,
2013-08-04 21:36:00,75.6,57.3,29.99,North,360,2.0,3.0,53,0.00,,,0.00,Wunderground v.1.15,2013-08-05 01:36:00,
2013-08-04 21:38:00,75.5,57.7,29.99,North,360,2.0,3.0,54,0.00,,,0.00,Wunderground v.1.15,2013-08-05 01:38:00,
2013-08-04 21:40:00,75.5,57.2,29.99,North,360,2.0,5.0,53,0.00,,,0.00,Wunderground v.1.15,2013-08-05 01:40:00,
2013-08-04 21:41:00,75.5,57.2,29.99,North,360,3.0,5.0,53,0.00,,,0.00,Wunderground v.1.15,2013-08-05 01:41:00,
2013-08-04 21:43:00,75.5,57.2,29.99,North,360,3.0,5.0,53,0.00,,,0.00,Wunderground v.1.15,2013-08-05 01:43:00,
2013-08-04 21:46:00,75.5,57.2,29.99,North,360,2.0,5.0,53,0.00,,,0.00,Wunderground v.1.15,2013-08-05 01:46:00,
2013-08-04 21:47:00,75.5,57.2,29.98,North,360,2.0,5.0,53,0.00,,,0.00,Wunderground v.1.15,2013-08-05 01:47:00,
2013-08-04 21:50:00,75.5,57.2,29.99,North,360,2.0,3.0,53,0.00,,,0.00,Wunderground v.1.15,2013-08-05 01:50:00,
2013-08-04 21:52:00,75.5,57.2,29.99,North,360,2.0,3.0,53,0.00,,,0.00,Wunderground v.1.15,2013-08-05 01:52:00,
2013-08-04 21:55:00,75.5,57.2,29.99,North,360,2.0,3.0,53,0.00,,,0.00,Wunderground v.1.15,2013-08-05 01:55:00,
2013-08-04 22:00:00,75.2,56.9,29.99,North,360,3.0,3.0,53,0.00,,,0.00,Wunderground v.1.15,2013-08-05 02:00:00,
2013-08-04 22:02:00,75.2,56.9,29.99,North,360,3.0,3.0,53,0.00,,,0.00,Wunderground v.1.15,2013-08-05 02:02:00,
2013-08-04 22:04:00,75.0,57.2,29.99,North,360,3.0,3.0,54,0.00,,,0.00,Wunderground v.1.15,2013-08-05 02:04:00,
2013-08-04 22:05:00,74.9,57.1,29.99,North,360,3.0,3.0,54,0.00,,,0.00,Wunderground v.1.15,2013-08-05 02:05:00,
2013-08-04 22:08:00,74.8,57.0,29.99,North,360,2.0,4.0,54,0.00,,,0.00,Wunderground v.1.15,2013-08-05 02:08:00,
2013-08-04 22:09:00,74.8,57.0,29.99,North,360,2.0,2.0,54,0.00,,,0.00,Wunderground v.1.15,2013-08-05 02:09:00,
2013-08-04 22:12:00,74.7,57.5,30.00,North,360,2.0,3.0,55,0.00,,,0.00,Wunderground v.1.15,2013-08-05 02:12:00,
2013-08-04 22:17:00,74.8,57.5,29.99,North,360,1.0,3.0,55,0.00,,,0.00,Wunderground v.1.15,2013-08-05 02:17:00,
2013-08-04 22:20:00,74.8,57.5,29.99,North,360,1.0,1.0,55,0.00,,,0.00,Wunderground v.1.15,2013-08-05 02:20:00,
2013-08-04 22:24:00,74.9,57.6,29.99,North,360,1.0,2.0,55,0.00,,,0.00,Wunderground v.1.15,2013-08-05 02:24:00,
2013-08-04 22:25:00,74.8,57.5,29.99,North,360,1.0,2.0,55,0.00,,,0.00,Wunderground v.1.15,2013-08-05 02:25:00,
2013-08-04 22:28:00,74.7,57.5,30.00,North,360,1.0,3.0,55,0.00,,,0.00,Wunderground v.1.15,2013-08-05 02:28:00,
2013-08-04 22:30:00,74.5,57.8,29.99,North,360,1.0,2.0,56,0.00,,,0.00,Wunderground v.1.15,2013-08-05 02:30:00,
2013-08-04 22:34:00,74.4,57.7,30.00,North,360,1.0,2.0,56,0.00,,,0.00,Wunderground v.1.15,2013-08-05 02:34:00,
2013-08-04 22:36:00,74.4,57.7,30.00,North,360,1.0,2.0,56,0.00,,,0.00,Wunderground v.1.15,2013-08-05 02:36:00,
2013-08-04 22:39:00,74.3,57.6,30.00,North,360,1.0,1.0,56,0.00,,,0.00,Wunderground v.1.15,2013-08-05 02:39:00,
2013-08-04 22:42:00,74.3,57.6,30.00,North,360,1.0,1.0,56,0.00,,,0.00,Wunderground v.1.15,2013-08-05 02:42:00,
2013-08-04 22:46:00,74.2,57.5,30.00,North,360,1.0,1.0,56,0.00,,,0.00,Wunderground v.1.15,2013-08-05 02:46:00,
2013-08-04 22:47:00,74.1,57.9,30.00,North,360,1.0,1.0,57,0.00,,,0.00,Wunderground v.1.15,2013-08-05 02:47:00,
2013-08-04 22:50:00,74.0,57.8,30.00,North,360,1.0,3.0,57,0.00,,,0.00,Wunderground v.1.15,2013-08-05 02:50:00,
2013-08-04 22:52:00,73.8,57.6,30.00,North,360,1.0,3.0,57,0.00,,,0.00,Wunderground v.1.15,2013-08-05 02:52:00,
2013-08-04 22:54:00,73.6,57.9,30.00,North,360,2.0,3.0,58,0.00,,,0.00,Wunderground v.1.15,2013-08-05 02:54:00,
2013-08-04 22:56:00,73.5,57.8,30.00,North,360,2.0,3.0,58,0.00,,,0.00,Wunderground v.1.15,2013-08-05 02:56:00,
2013-08-04 22:58:00,73.4,57.7,30.00,North,360,3.0,3.0,58,0.00,,,0.00,Wunderground v.1.15,2013-08-05 02:58:00,
2013-08-04 22:59:00,73.3,57.6,30.00,North,360,3.0,5.0,58,0.00,,,0.00,Wunderground v.1.15,2013-08-05 02:59:00,
2013-08-04 23:04:00,72.9,57.7,30.00,North,360,3.0,5.0,59,0.00,,,0.00,Wunderground v.1.15,2013-08-05 03:04:00,
2013-08-04 23:06:00,72.8,57.6,30.00,North,360,3.0,5.0,59,0.00,,,0.00,Wunderground v.1.15,2013-08-05 03:06:00,
2013-08-04 23:08:00,72.6,57.4,30.00,North,360,3.0,6.0,59,0.00,,,0.00,Wunderground v.1.15,2013-08-05 03:08:00,
2013-08-04 23:09:00,72.6,57.9,30.00,North,360,4.0,5.0,60,0.00,,,0.00,Wunderground v.1.15,2013-08-05 03:09:00,
2013-08-04 23:14:00,72.6,57.9,30.00,North,360,4.0,5.0,60,0.00,,,0.00,Wunderground v.1.15,2013-08-05 03:14:00,
2013-08-04 23:16:00,72.6,57.4,30.00,North,360,4.0,6.0,59,0.00,,,0.00,Wunderground v.1.15,2013-08-05 03:16:00,
2013-08-04 23:18:00,72.7,57.5,30.00,North,360,4.0,6.0,59,0.00,,,0.00,Wunderground v.1.15,2013-08-05 03:18:00,
2013-08-04 23:20:00,72.8,57.6,30.00,North,360,4.0,4.0,59,0.00,,,0.00,Wunderground v.1.15,2013-08-05 03:20:00,
2013-08-04 23:21:00,72.7,57.5,30.00,North,360,4.0,7.0,59,0.00,,,0.00,Wunderground v.1.15,2013-08-05 03:21:00,
2013-08-04 23:24:00,72.6,57.4,30.01,North,360,4.0,7.0,59,0.00,,,0.00,Wunderground v.1.15,2013-08-05 03:24:00,
2013-08-04 23:25:00,72.6,57.4,30.00,North,360,4.0,7.0,59,0.00,,,0.00,Wunderground v.1.15,2013-08-05 03:25:00,
2013-08-04 23:30:00,72.5,57.4,30.01,North,360,4.0,6.0,59,0.00,,,0.00,Wunderground v.1.15,2013-08-05 03:30:00,
2013-08-04 23:32:00,72.6,57.4,30.01,North,360,4.0,6.0,59,0.00,,,0.00,Wunderground v.1.15,2013-08-05 03:32:00,
2013-08-04 23:37:00,72.6,57.0,30.01,North,360,3.0,6.0,58,0.00,,,0.00,Wunderground v.1.15,2013-08-05 03:37:00,
2013-08-04 23:40:00,72.6,57.0,30.01,North,360,4.0,4.0,58,0.00,,,0.00,Wunderground v.1.15,2013-08-05 03:40:00,
2013-08-04 23:44:00,72.7,56.6,30.01,North,360,4.0,5.0,57,0.00,,,0.00,Wunderground v.1.15,2013-08-05 03:44:00,
2013-08-04 23:46:00,72.7,56.6,30.01,North,360,4.0,6.0,57,0.00,,,0.00,Wunderground v.1.15,2013-08-05 03:46:00,
2013-08-04 23:48:00,72.7,56.6,30.01,North,360,4.0,6.0,57,0.00,,,0.00,Wunderground v.1.15,2013-08-05 03:48:00,
2013-08-04 23:54:00,72.8,56.7,30.01,North,360,4.0,5.0,57,0.00,,,0.00,Wunderground v.1.15,2013-08-05 03:54:00,
2013-08-04 23:56:00,72.8,56.7,30.01,North,360,3.0,5.0,57,0.00,,,0.00,Wunderground v.1.15,2013-08-05 03:56:00,